Location: Unspecified
(22.6800°N, 112.2000°E)
Time: 08:22:02
(UTC+08:00)

X-37B - Pass Details

Date: 25 June 2021
Orbit: 383 x 392 km, 45.0° (Epoch: 01 July)

Event Time Altitude Azimuth Distance (km) Brightness Sun altitude
Rises 20:23:43 0° 273° (W) 2,248 5.6 -13.7°
Reaches altitude 10° 20:27:22 10° 317° (NW) 1,396 4.7 -14.4°
Maximum altitude 20:27:57 10° 328° (NNW) 1,374 4.4 -14.5°
Drops below altitude 10° 20:28:33 10° 339° (NNW) 1,396 4.2 -14.7°
Sets 20:32:13 0° 23° (NNE) 2,249 4.6 -15.4°
